Regional Weather Roundup
Issued by NWS

Home | Current Version | Previous Version | Graphics & Text | Print | Product List | Glossary On
Versions: 1 2 3 4 5 6 7 8 9 10 11 12 13 14 15 16 17 18 19 20 21 22 23 24 25 26 27 28 29 30 31 32 33 34 35 36 37 38 39 40 41 42 43 44 45 46 47 48 49 50
000
ASUS43 KDTX 290110
RWRMI
MICHIGAN HOURLY REGIONAL WEATHER ROUNDUP
NATIONAL WEATHER SERVICE DETROIT/PONTIAC MI
900 PM EDT THU JUL 28 2016

NOTE: "FAIR" INDICATES FEW OR NO CLOUDS BELOW 12,000 FEET WITH NO
SIGNIFICANT WEATHER AND/OR OBSTRUCTION TO VISIBILITY.

MIZ047>049-052>055-059>063-066>070-074>076-081>083-290200-
SOUTHEAST LOWER MICHIGAN

CITY           SKY/WX    TMP DP  RH WIND       PRES   REMARKS
ADRIAN         MOCLDY    73  63  70 N20G25    29.92R THUNDER
ALMA           MOCLDY    74  65  74 E6        29.95S
ANN ARBOR      MOCLDY    79  64  60 NE6       29.90S THUNDER
BAD AXE        CLOUDY    69  63  81 NE7       29.96F
CARO           PTCLDY    71  61  71 NE3       29.94F
DETROIT CITY   PTCLDY    77  62  59 NE7       29.91S
DETROIT        MOCLDY    81  58  45 NE10      29.90S
FLINT          PTCLDY    80  62  54 NE10      29.93S
GROSSE ILE     PTCLDY    78  65  64 NE7       29.89F
HILLSDALE      PTCLDY    76  65  70 CALM      29.91F
HOWELL         MOCLDY    74  65  73 CALM      29.93F

CITY           SKY/WX    TMP DP  RH WIND       PRES   REMARKS
JACKSON        PTCLDY    77  65  66 NE12      29.92S
LAMBERTVILLE   CLEAR     79  69  72 CALM      29.90F
LANSING        CLOUDY    71  66  84 NE3       29.93F
LAPEER         FAIR      74  60  61 NE5       29.95S
MASON          CLOUDY    73  61  66 CALM      29.92F
MONROE         MOCLDY    76  71  86 CALM      29.88F
PONTIAC        MOCLDY    77  61  57 NE8       29.92S
PORT HOPE        N/A     71  64  78 N9        29.95S
PORT HURON     PTCLDY    70  64  83 VRB7      29.94S
TRI CITIES     PTCLDY    72  65  78 NE7       29.95S
MIDLAND        FAIR      71  63  75 NE6       29.95S
TROY           MOCLDY    81  55  40 NE7       29.93S
SAGINAW HB     CLEAR     72  61  68 NE5       29.94S
$$
MIZ043>046-050>051-056>058-064>065-071>073-077>080-290200-
SOUTHWEST LOWER MICHIGAN

CITY           SKY/WX    TMP DP  RH WIND       PRES   REMARKS
BATTLE CREEK   CLOUDY    70  68  93 NE5       29.90F
BENTON HARBOR  MOCLDY    75  65  70 E8        29.89S
BIG RAPIDS     CLOUDY    69  69 100 CALM      29.94S
COLDWATER      CLOUDY    77  67  71 N6        29.90F
FREMONT        FAIR      67  67 100 NE7       29.93R
HOLLAND        PTCLDY    73  69  87 NE3       29.92S
GRAND RAPIDS   CLOUDY    70  65  84 NE5       29.92F
IONIA          FAIR      74  63  67 NE10      29.91F
KALAMAZOO      CLOUDY    71  66  84 N3        29.90F
LUDINGTON      CLOUDY    71  67  88 CALM      29.93R
MARSHALL       CLOUDY    78  65  65 CALM      29.91F
MOUNT PLEASANT CLOUDY    74  63  68 E5        29.94F
MUSKEGON       MOCLDY    71  65  81 NE6       29.91S
SOUTH HAVEN    MOCLDY    68  66  93 CALM      29.89F
$$
MIZ016>042-290200-
NORTHERN LOWER MICHIGAN

CITY           SKY/WX    TMP DP  RH WIND       PRES   REMARKS
ALPENA         CLEAR     73  57  57 CALM      29.98F
BEAVER ISLAND  CLOUDY    68  55  62 N7        30.01S
BELLAIRE       CLOUDY    72  58  61 CALM      29.97S
CADILLAC       CLOUDY    70  62  75 N7        29.97S
CHARLEVOIX     PTCLDY    72  62  69 N8        30.02R
FRANKFORT      CLOUDY    72  60  67 N5        29.96S
GAYLORD        CLEAR     72  55  55 NE9       30.00F
GRAYLING       CLOUDY    75  59  58 NE8       29.99S
HARBOR SPRINGS CLEAR     71  57  61 NE3       29.99S
HOUGHTON LAKE  CLOUDY    71  62  73 E5        29.98F
MANISTEE       MOCLDY    73  62  68 NE8       29.94S
OSCODA         MOCLDY    69  60  72 NE7       29.96F
PELLSTON       CLEAR     71  57  61 N8        30.00S
ROGERS CITY    CLEAR     68  59  73 CALM      30.00S
TRAVERSE CITY  CLOUDY    75  63  66 CALM      29.94F
$$
MIZ007>008-015-290200-
EASTERN UPPER MICHIGAN

CITY           SKY/WX    TMP DP  RH WIND       PRES   REMARKS
KINROSS        CLOUDY    65  56  72 NW10      30.02R
MACKINAC ISLAN CLEAR     68  54  61 N9        30.00F
NEWBERRY       PTCLDY    61  55  82 NW7       30.03F
S. S. MARIE    CLOUDY    67  57  70 W9        30.01R
MUNISING         N/A     64  58  80 N8        30.05F
$$
MIZ004>006-011>014-085-290200-
CENTRAL UPPER MICHIGAN

CITY           SKY/WX    TMP DP  RH WIND       PRES   REMARKS
MANISTIQUE     CLOUDY    63  55  77 N10       30.02S
ESCANABA       PTCLDY    64  52  63 N8        30.02S
MENOMINEE      CLOUDY   N/A N/A N/A NE8       30.01S
SAWYER-GWINN   CLEAR     59  54  82 N12       30.07F
$$
MIZ001>003-009>011-084-290200-
WESTERN UPPER MICHIGAN

CITY           SKY/WX    TMP DP  RH WIND       PRES   REMARKS
IRON MOUNTAIN  PTCLDY    65  51  60 NE5       30.04S
HOUGHTON       CLOUDY    64  54  69 S3        30.08S
COPPER HARBOR    N/A     65  55  70 N5        30.07S
IRONWOOD       PTCLDY    64  48  55 E8        30.06F
$$

ABBREVIATIONS USED IN REMARKS
   TC - TEMPERATURE IN CELSIUS
  WCI - WIND CHILL INDEX
   HX - HEAT INDEX
  VSB - VISIBILITY





USA.gov is the U.S. government's official web portal to all federal, state and local government web resources and services.